Regional Weather Roundup
Issued by NWS

Home | Current Version | Previous Version | Graphics & Text | Print | Product List | Glossary On
Versions: 1 2 3 4 5 6 7 8 9 10 11 12 13 14 15 16 17 18 19 20 21 22 23 24 25 26 27 28 29 30 31 32 33 34 35 36 37 38 39 40 41 42 43 44 45 46 47 48 49 50
000
ASUS43 KOAX 161410
RWRNE

WEATHER ROUNDUP FOR NEBRASKA
NATIONAL WEATHER SERVICE OMAHA NE
800 AM CST SAT DEC 16 2017

NOTES: SATELLITE DATA IS BEING USED TO AUGMENT CLOUD COVER ABOVE
       12000 FEET.
       "FAIR" INDICATES FEW OR NO CLOUDS BELOW 12,000 FEET WITH NO
       SIGNIFICANT WEATHER AND/OR OBSTRUCTIONS TO VISIBILITY.


NEZ001>004-019>022-054>056-161500-
NEBRASKA PANHANDLE

CITY           SKY/WX    TMP DP  RH WIND       PRES   REMARKS
SCOTTSBLUFF    CLOUDY    32  12  43 W6        29.83R WCI  26
ALLIANCE       CLOUDY    29  15  56 NE6       29.81R WCI  23
CHADRON        CLOUDY    29  19  66 CALM      29.87R
GORDON         FAIR      29  23  76 NW5       29.85R WCI  24
KIMBALL        CLOUDY    38   6  26 N12       29.81R WCI  30
SIDNEY         CLOUDY    30   8  39 NW8       29.80R WCI  22
$$

NEZ057>060-069>072-079>082-161500-
SOUTHWEST NEBRASKA

CITY           SKY/WX    TMP DP  RH WIND       PRES   REMARKS
NORTH PLATTE   CLOUDY    28  21  75 NW6       29.80R WCI  22
IMPERIAL       CLOUDY    27  15  61 NW6       29.78R WCI  20
LEXINGTON      CLOUDY    32  21  63 NW7       29.78R WCI  26
MCCOOK         CLOUDY    23  13  65 SW3       29.76R
OGALLALA       CLOUDY    24  16  71 W3        29.80R
$$

NEZ005>010-023>029-035>040-094-161500-
NORTH CENTRAL NEBRASKA

CITY           SKY/WX    TMP DP  RH WIND       PRES   REMARKS
VALENTINE      CLOUDY    33  25  72 W7        29.83R WCI  27
AINSWORTH      CLOUDY    34  27  75 NW8       29.81R WCI  27
BROKEN BOW     PTCLDY    36  22  56 N6        29.80R WCI  31
O`NEILL        CLOUDY    35  27  71 NW8       29.80R WCI  28
ORD            CLOUDY    30  24  78 NW9       29.79R WCI  22
THEDFORD       CLOUDY    35  24  64 NW3       29.81R
$$

NEZ041-046>049-061>064-073>077-083>087-161500-
SOUTH CENTRAL NEBRASKA

CITY           SKY/WX    TMP DP  RH WIND       PRES   REMARKS
GRAND ISLAND   PTCLDY    28  21  75 W6        29.78R WCI  22
AURORA         CLOUDY    23  18  80 W8        29.77R WCI  14
HASTINGS       CLOUDY    25  16  68 CALM      29.77R
HEBRON         CLOUDY    28  20  74 CALM      29.79R
HOLDREGE       CLOUDY    31  19  60 NW9       29.76R WCI  23
YORK           CLOUDY    25  19  80 NW5       29.77R WCI  19
$$

NEZ011>018-030>034-042>045-161500-
NORTHEAST NEBRASKA

CITY           SKY/WX    TMP DP  RH WIND       PRES   REMARKS
NORFOLK        CLOUDY    29  23  78 NW5       29.77R WCI  24
ALBION         CLOUDY    33  25  73 NW10      29.78R WCI  24
BLAIR          CLOUDY    33  21  62 SW3       29.77R
COLUMBUS       PTCLDY    23  20  88 CALM      29.80R
FREMONT        CLOUDY    24  19  81 CALM      29.80R
TEKAMAH        CLOUDY    20  14  77 S7        29.79R WCI  11
WAYNE          CLOUDY    26  23  87 S6        29.78R WCI  19
$$

NEZ050>053-065>068-078-088>093-161500-
SOUTHEAST NEBRASKA

CITY           SKY/WX    TMP DP  RH WIND       PRES   REMARKS
LINCOLN        CLOUDY    26  18  71 CALM      29.80R
OMAHA EPPLEY   CLOUDY    31  21  66 SE5       29.79R WCI  26
BEATRICE       PTCLDY    27  22  80 CALM      29.80R
FALLS CITY     CLOUDY    30  22  72 SE7       29.81R WCI  23
NEBRASKA CITY  CLOUDY    30  22  73 SW6       29.79R WCI  24
PLATTSMOUTH    CLOUDY    32  23  67 SW5       29.79R WCI  28
$$

NEZ044-045-051>053-067-161500-
OMAHA AREA

CITY           SKY/WX    TMP DP  RH WIND       PRES   REMARKS
OMAHA EPPLEY   CLOUDY    31  21  66 SE5       29.79R WCI  26
BLAIR          CLOUDY    33  21  62 SW3       29.77R
FREMONT        CLOUDY    24  19  81 CALM      29.80R
MILLARD        CLOUDY    29  22  74 CALM      29.80R
OFFUTT AFB     CLOUDY    23  18  80 CALM      29.79R
PLATTSMOUTH    CLOUDY    32  23  67 SW5       29.79R WCI  28
WAHOO          FAIR      29  22  73 CALM      29.79R
$$




USA.gov is the U.S. government's official web portal to all federal, state and local government web resources and services.